Weather History for Douglas, WY

Change the Weather History Date:

Friday, January 11, 2013

  Actual Average Record
Temperature  
Mean Temperature 17 °F 25 °F  
Max Temperature 27 °F 39 °F 58 °F (2003)
Min Temperature 6 °F 11 °F -13 °F (2011)
Degree Days  
Heating Degree Days 48 40  
Month to date heating degree days 445 442  
Since 1 July heating degree days 3166 3531  
Cooling Degree Days 0 0  
Month to date cooling degree days 0 0  
Year to date cooling degree days 0 0  
Moisture  
Dew Point 7 °F    
Average Humidity 77    
Maximum Humidity 96    
Minimum Humidity 58    
Precipitation  
Precipitation T in 0.01 in 0.19 in (2005)
Month to date precipitation T 0.11  
Year to date precipitation T 0.11  
Sea Level Pressure  
Sea Level Pressure 29.64 in    
Wind  
Wind Speed 17 mph (NNW)    
Max Wind Speed 33 mph    
Max Gust Speed 45 mph    
Visibility 7 miles    
Events Snow    
T = Trace of Precipitation, MM = Missing Value Source: NWS Daily Summary

Daily Weather History Graph

Daily Weather History Graph

Search for Another Location

Airport:

Trip Planner

Search our weather history database for the weather conditions in past years. The results will help you decide how hot, cold, wet, or windy it might be!

Date:

Astronomy

Jan. 11, 2013 Rise Set
Actual Time 7:30 AM MST 4:48 PM MST
Civil Twilight 6:59 AM MST 5:20 PM MST
Nautical Twilight 6:24 AM MST 5:55 PM MST
Astronomical Twilight 5:50 AM MST 6:29 PM MST
Moon 7:04 AM MST (1/11) 5:11 PM MST (1/11)
Length of Visible Light 10h 20m
Length of Day
9h 17m
Waning Crescent, 0% of the Moon is Illuminated
Jan 11
Waning Crescent
Jan 11
New
Jan 18
First Quarter
Jan 26
Full
Feb 3
Last Quarter

Hourly Weather History & Observations

Time (MST) Temp. Windchill Dew Point Humidity Pressure Visibility Wind Dir Wind Speed Gust Speed Precip Events Conditions
12:53 AM 23.0 °F 14.7 °F 14.0 °F 68% 29.42 in 10.0 mi SE 6.9 mph - N/A   Clear
1:53 AM 24.1 °F 19.7 °F 14.0 °F 65% 29.41 in 10.0 mi ESE 3.5 mph - N/A   Clear
2:53 AM 23.0 °F 9.6 °F 17.1 °F 78% 29.43 in 10.0 mi NW 16.1 mph 19.6 mph N/A   Clear
3:16 AM 21.2 °F 12.6 °F 17.6 °F 86% 29.45 in 10.0 mi NW 6.9 mph - N/A   Mostly Cloudy
3:25 AM 21.2 °F 10.9 °F 19.4 °F 93% 29.45 in 10.0 mi NNW 9.2 mph - N/A   Mostly Cloudy
3:33 AM 21.2 °F 9.5 °F 19.4 °F 93% 29.41 in 10.0 mi NNE 11.5 mph 18.4 mph N/A   Overcast
3:53 AM 23.0 °F 11.7 °F 21.0 °F 92% 29.41 in 10.0 mi WNW 11.5 mph - N/A   Overcast
4:53 AM 23.0 °F 11.7 °F 21.0 °F 92% 29.44 in 10.0 mi North 11.5 mph 17.3 mph N/A   Overcast
5:24 AM 23.0 °F 10.6 °F 19.4 °F 86% 29.44 in 10.0 mi NNW 13.8 mph 20.7 mph N/A   Overcast
5:53 AM 21.9 °F 9.2 °F 18.0 °F 85% 29.45 in 10.0 mi NNW 13.8 mph 21.9 mph N/A   Overcast
6:48 AM 19.4 °F 6.0 °F 15.8 °F 86% 29.48 in 10.0 mi North 13.8 mph 20.7 mph N/A   Overcast
6:53 AM 19.0 °F 6.1 °F 15.1 °F 85% 29.52 in 10.0 mi NNW 12.7 mph - N/A   Overcast
7:17 AM 17.6 °F 1.3 °F 10.4 °F 73% 29.49 in 10.0 mi North 19.6 mph - 0.00 in Snow Light Snow
7:37 AM 15.8 °F -0.6 °F 10.4 °F 79% 29.47 in 1.5 mi NNW 18.4 mph 24.2 mph 0.00 in Snow Light Snow
7:40 AM 15.8 °F -0.6 °F 10.4 °F 79% 29.47 in 1.0 mi NNW 18.4 mph 24.2 mph 0.00 in Snow Light Snow
7:53 AM 15.1 °F -3.3 °F 9.0 °F 77% 29.54 in 1.5 mi North 23.0 mph 31.1 mph 0.00 in Snow Light Snow
8:04 AM 14.0 °F 0.5 °F 8.6 °F 79% 29.51 in 3.0 mi NNW 11.5 mph 25.3 mph 0.00 in Snow Light Snow
8:53 AM 12.9 °F -4.9 °F 6.1 °F 74% 29.63 in 3.0 mi NNW 19.6 mph 27.6 mph 0.00 in Snow Light Snow
9:38 AM 12.2 °F -3.7 °F 6.8 °F 79% 29.54 in 2.5 mi NNW 15.0 mph - 0.00 in Snow Light Snow
9:44 AM 12.2 °F -5.8 °F 6.8 °F 79% 29.54 in 1.5 mi NW 19.6 mph 26.5 mph 0.00 in Snow Light Snow
9:53 AM 12.9 °F -4.4 °F 6.1 °F 74% 29.66 in 1.8 mi NW 18.4 mph 26.5 mph 0.00 in Snow Light Snow
10:00 AM 12.2 °F -4.8 °F 5.0 °F 73% 29.55 in 3.0 mi NNW 17.3 mph - 0.00 in Snow Light Snow
10:07 AM 12.2 °F -3.1 °F 6.8 °F 79% 29.55 in 6.0 mi NW 13.8 mph - 0.00 in Snow Light Snow
10:53 AM 12.9 °F -4.4 °F 5.0 °F 71% 29.68 in 6.0 mi NW 18.4 mph - 0.00 in Snow Light Snow
11:25 AM 12.2 °F -7.5 °F 3.2 °F 67% 29.54 in 1.8 mi NNW 24.2 mph 31.1 mph 0.00 in Snow Light Snow
11:53 AM 12.0 °F -8.5 °F 6.1 °F 77% 29.70 in 1.2 mi NNW 26.5 mph 33.4 mph 0.00 in Snow Light Snow
12:10 PM 12.2 °F -7.1 °F 3.2 °F 67% 29.56 in 3.0 mi NW 23.0 mph 31.1 mph 0.00 in Snow Light Snow
12:42 PM 10.4 °F -9.5 °F 1.4 °F 67% 29.57 in 7.0 mi NNW 23.0 mph 32.2 mph 0.00 in Snow Light Snow
1:53 PM 10.0 °F -10.4 °F -0.0 °F 64% 29.76 in 9.0 mi NNW 24.2 mph 35.7 mph 0.00 in   Overcast
2:53 PM 10.9 °F -8.8 °F -0.0 °F 61% 29.80 in 10.0 mi NW 23.0 mph 29.9 mph N/A   Overcast
3:53 PM 9.0 °F -11.0 °F -0.0 °F 67% 29.84 in 10.0 mi NNW 21.9 mph 27.6 mph N/A   Overcast
4:53 PM 8.1 °F -12.6 °F -0.9 °F 67% 29.86 in 10.0 mi NNW 23.0 mph 27.6 mph N/A   Overcast
5:23 PM 8.6 °F -10.5 °F -0.4 °F 67% 29.69 in 10.0 mi NNW 19.6 mph 29.9 mph N/A   Overcast
5:53 PM 8.1 °F -11.2 °F -0.9 °F 67% 29.90 in 10.0 mi NNW 19.6 mph - N/A   Overcast
6:53 PM 7.0 °F -12.1 °F -2.0 °F 67% 29.94 in 10.0 mi NNW 18.4 mph 24.2 mph N/A   Overcast
7:53 PM 6.1 °F -13.8 °F -2.9 °F 67% 29.98 in 10.0 mi NNW 19.6 mph - N/A   Mostly Cloudy
8:53 PM 6.1 °F -12.2 °F -4.0 °F 63% 30.00 in 10.0 mi NW 16.1 mph - N/A   Overcast
9:53 PM 7.0 °F -9.8 °F -2.9 °F 64% 30.01 in 10.0 mi NW 13.8 mph - N/A   Overcast
10:17 PM 6.8 °F -13.8 °F -2.2 °F 67% 29.80 in 3.0 mi NW 21.9 mph - 0.00 in Snow Light Snow
10:42 PM 6.8 °F -12.9 °F -2.2 °F 67% 29.82 in 8.0 mi NW 19.6 mph 24.2 mph 0.00 in   Overcast
10:53 PM 6.1 °F -12.8 °F -2.0 °F 69% 30.05 in 6.0 mi NW 17.3 mph - 0.00 in Snow Light Snow
11:35 PM 6.8 °F -11.3 °F -0.4 °F 72% 29.83 in 3.0 mi NW 16.1 mph 26.5 mph 0.00 in Snow Light Snow
11:53 PM 6.1 °F -14.3 °F -0.0 °F 76% 30.07 in 3.0 mi NW 20.7 mph 26.5 mph 0.00 in Snow Light Snow